User: anonymous   Login
Location: Taupo
(38.6830°S, 176.0830°E)
Time: 06:34:47
(UTC+12:00)
Language:

CZ-2C R/B - Orbit

View from above orbital plane
View from above orbital plane
View from above satellite
View from above satellite

Ground track
Ground track

The orbit data is extracted from the following two-line orbital elements,

1 31114U 07010B   19139.09747850 -.00000012  00000-0  13316-4 0  9993
2 31114  98.3153  12.3551 0059352 339.8200  20.0631 14.19293439626930
Epoch (UTC): 19 May 2019 02:20:22
Eccentricity: 0.0059352
inclination: 98.3153°
perigee height: 785 km
apogee height: 870 km
right ascension of ascending node: 12.3551°
argument of perigee: 339.8200°
revolutions per day: 14.19293439
mean anomaly at epoch: 20.0631°
orbit number at epoch: 62693

The dashed part of the orbit path shows where the satellite is in the earth's shadow,  

DLR